sat.trackr.live / text

‹ back to catalog

STARLINK-11343 [DTC]

NORAD 62017 · 2024-213K

PAYLOAD ACTIVE UNKNOWN

§ Identity

Operator
Country
US
Launch date
2024-11-18
Launch site
AFWTR
Launch vehicle
Mass (kg)
RCS (m²)

Purposes: comms

External: N2YO · Heavens-Above · Gunter

§ Orbital elements

Epoch: 2026-09-21T20:31:00.397344Z

Period
91.73 min
Inclination
53.1569°
Eccentricity
0.0001137
Mean motion
15.69779940 rev/d
Perigee alt
358.8 km
Apogee alt
360.3 km
Semi-major
6,737.7 km
B*
8.7267e-4
RAAN
154.3519°
Arg perigee
118.8900°
Mean anomaly
241.2233°
Rev number
10,572

§ Raw data

STARLINK-11343 [DTC]1 62017U 24213K   26264.85486571  .00106815  00000+0  87267-3 0  99952 62017  53.1569 154.3519 0001137 118.8900 241.2233 15.69779940105723

JSON: /api/v1/satellites/62017 · /tle

For live sub-satellite position, see the globe view (requires WebGL).

§ Visibility from observer

Set your observer location to see the next 7 days of passes ≥ 10°. The values pass through the URL so the page stays shareable.

No JS? Fill the form by hand. The geolocation button needs JavaScript.